Location: Tamazert
(32.6352°N, 5.2072°W)
Time: 17:53:38
(UTC+00:00)

Transit 2A Rocket - Pass Details

Date: 10 October 2022
Orbit: 589 x 912 km, 66.7° (Epoch: 07 December)

Event Time Altitude Azimuth Distance (km) Brightness Sun altitude
Rises 14:14:02 0° 323° (NW) 3,121 8.1 40.5°
Reaches altitude 10° 14:16:27 10° 315° (NW) 2,250 7.5 40.1°
Maximum altitude 14:21:08 36° 249° (WSW) 1,228 7.8 39.4°
Drops below altitude 10° 14:26:12 10° 185° (S) 2,434 8.3 38.7°
Sets 14:28:55 0° 177° (S) 3,411 8.8 38.2°
